| time (UTC) | temp C | wind direction | speed KPH | gust KPH | rain 1hr cm | rain 24hr cm | rain mn cm | humidity % | barometer mb |
| 20260503203043 | 18 | 194 | 1.6 | 14.5 | 0.00 | 0.00 | 0.00 | 34 | 1016.0 |
| 20260503202532 | 18 | 250 | 3.2 | 14.5 | 0.00 | 0.00 | 0.00 | 35 | 1016.0 |
| 20260503202029 | 18 | 258 | 1.6 | 8.0 | 0.00 | 0.00 | 0.00 | 34 | 1016.0 |
| 20260503201542 | 18 | 157 | 3.2 | 14.5 | 0.00 | 0.00 | 0.00 | 34 | 1016.2 |
| 20260503201031 | 18 | 0 | 3.2 | 14.5 | 0.00 | 0.00 | 0.00 | 35 | 1016.3 |
| 20260503200529 | 18 | 150 | 1.6 | 12.9 | 0.00 | 0.00 | 0.00 | 34 | 1016.2 |
| 20260503200044 | 17 | 314 | 3.2 | 12.9 | 0.00 | 0.00 | 0.00 | 33 | 1016.4 |
| 20260503195529 | 17 | 0 | 1.6 | 12.9 | 0.00 | 0.00 | 0.00 | 36 | 1016.6 |
| 20260503195031 | 17 | 127 | 3.2 | 9.7 | 0.00 | 0.00 | 0.00 | 34 | 1016.8 |
| 20260503194547 | 18 | 264 | 0.0 | 11.3 | 0.00 | 0.00 | 0.00 | 34 | 1017.0 |
| 20260503194029 | 17 | 46 | 3.2 | 12.9 | 0.00 | 0.00 | 0.00 | 35 | 1017.1 |
| 20260503193529 | 17 | 231 | 3.2 | 12.9 | 0.00 | 0.00 | 0.00 | 32 | 1017.3 |
| 20260503193053 | 17 | 36 | 3.2 | 17.7 | 0.00 | 0.00 | 0.00 | 36 | 1017.5 |
| 20260503192531 | 17 | 276 | 3.2 | 17.7 | 0.00 | 0.00 | 0.00 | 34 | 1017.7 |
| 20260503192031 | 17 | 145 | 8.0 | 17.7 | 0.00 | 0.00 | 0.00 | 34 | 1017.6 |
| 20260503191544 | 17 | 134 | 8.0 | 17.7 | 0.00 | 0.00 | 0.00 | 34 | 1017.7 |
| 20260503191028 | 17 | 108 | 3.2 | 11.3 | 0.00 | 0.00 | 0.00 | 33 | 1017.7 |
| 20260503190532 | 17 | 131 | 1.6 | 11.3 | 0.00 | 0.00 | 0.00 | 33 | 1017.7 |
| 20260503190043 | 17 | 207 | 1.6 | 24.1 | 0.00 | 0.00 | 0.00 | 37 | 1017.9 |
| 20260503185531 | 17 | 248 | 1.6 | 24.1 | 0.00 | 0.00 | 0.00 | 34 | 1018.1 |
| 20260503185028 | 17 | 212 | 1.6 | 9.7 | 0.00 | 0.00 | 0.00 | 33 | 1018.1 |
| 20260503184552 | 17 | 48 | 3.2 | 11.3 | 0.00 | 0.00 | 0.00 | 36 | 1018.1 |
| 20260503184031 | 17 | 176 | 3.2 | 12.9 | 0.00 | 0.00 | 0.00 | 34 | 1018.3 |
| 20260503183532 | 16 | 50 | 3.2 | 14.5 | 0.00 | 0.00 | 0.00 | 36 | 1018.3 |
| 20260503183102 | 16 | 181 | 8.0 | 14.5 | 0.00 | 0.00 | 0.00 | 33 | 1018.4 |
| 20260503182528 | 17 | 191 | 1.6 | 19.3 | 0.00 | 0.00 | 0.00 | 33 | 1018.4 |
| 20260503182030 | 16 | 143 | 4.8 | 19.3 | 0.00 | 0.00 | 0.00 | 37 | 1018.4 |
| 20260503181547 | 17 | 148 | 1.6 | 8.0 | 0.00 | 0.00 | 0.00 | 34 | 1018.5 |
| 20260503181029 | 17 | 210 | 3.2 | 11.3 | 0.00 | 0.00 | 0.00 | 35 | 1018.6 |
| 20260503180529 | 16 | 179 | 1.6 | 12.9 | 0.00 | 0.00 | 0.00 | 34 | 1018.6 |
| 20260503180047 | 16 | 294 | 4.8 | 19.3 | 0.00 | 0.00 | 0.00 | 36 | 1018.7 |
| 20260503175532 | 16 | 151 | 4.8 | 19.3 | 0.00 | 0.00 | 0.00 | 36 | 1018.6 |
| 20260503175031 | 16 | 191 | 0.0 | 24.1 | 0.00 | 0.00 | 0.00 | 36 | 1018.8 |
| 20260503174544 | 16 | 272 | 11.3 | 24.1 | 0.00 | 0.00 | 0.00 | 36 | 1018.7 |
| 20260503174032 | 16 | 155 | 0.0 | 20.9 | 0.00 | 0.00 | 0.00 | 37 | 1018.7 |
| 20260503173532 | 16 | 188 | 8.0 | 20.9 | 0.00 | 0.00 | 0.00 | 37 | 1018.9 |
| 20260503173112 | 16 | 224 | 6.4 | 17.7 | 0.00 | 0.00 | 0.00 | 35 | 1019.1 |
| 20260503172535 | 16 | 225 | 4.8 | 11.3 | 0.00 | 0.00 | 0.00 | 33 | 1019.2 |
| 20260503172031 | 16 | 203 | 1.6 | 20.9 | 0.00 | 0.00 | 0.00 | 36 | 1019.3 |
| 20260503171549 | 15 | 161 | 1.6 | 20.9 | 0.00 | 0.00 | 0.00 | 37 | 1019.5 |
| 20260503171029 | 15 | 58 | 9.7 | 20.9 | 0.00 | 0.00 | 0.00 | 36 | 1019.6 |
| 20260503170529 | 15 | 101 | 3.2 | 19.3 | 0.00 | 0.00 | 0.00 | 35 | 1019.6 |
| 20260503150529 | 13 | 212 | 6.4 | 14.5 | 0.00 | 0.00 | 0.00 | 45 | 1020.8 |
| 20260503131028 | 10 | 146 | 1.6 | 11.3 | 0.00 | 0.00 | 0.00 | 59 | 1020.9 |
| 20260503130528 | 9 | 162 | 3.2 | 11.3 | 0.00 | 0.00 | 0.00 | 60 | 1020.7 |
| 20260503110528 | 3 | 196 | 1.6 | 6.4 | 0.00 | 0.00 | 0.00 | 79 | 1019.9 |
| 20260503081547 | 2 | 0 | 0.0 | 1.6 | 0.00 | 0.00 | 0.00 | 86 | 1019.4 |
| 20260503081031 | 2 | 0 | 0.0 | 1.6 | 0.00 | 0.00 | 0.00 | 86 | 1019.5 |
| 20260503080529 | 2 | 0 | 0.0 | 0.0 | 0.00 | 0.00 | 0.00 | 86 | 1019.5 |
| 20260503072529 | 2 | 0 | 0.0 | 0.0 | 0.00 | 0.00 | 0.00 | 86 | 1019.1 |
| 20260503072031 | 2 | 0 | 0.0 | 1.6 | 0.00 | 0.00 | 0.00 | 85 | 1019.1 |
| 20260503071548 | 2 | 0 | 0.0 | 1.6 | 0.00 | 0.00 | 0.00 | 85 | 1019.1 |
| 20260503071031 | 2 | 138 | 0.0 | 1.6 | 0.00 | 0.00 | 0.00 | 85 | 1019.2 |
| 20260503070530 | 2 | 0 | 0.0 | 0.0 | 0.00 | 0.00 | 0.00 | 87 | 1019.2 |
| 20260503055029 | 2 | 0 | 0.0 | 0.0 | 0.00 | 0.00 | 0.00 | 83 | 1019.4 |
| 20260503054545 | 3 | 0 | 0.0 | 0.0 | 0.00 | 0.00 | 0.00 | 83 | 1019.4 |
| 20260503054035 | 3 | 0 | 0.0 | 0.0 | 0.00 | 0.00 | 0.00 | 83 | 1019.4 |
| 20260503053533 | 3 | 0 | 0.0 | 0.0 | 0.00 | 0.00 | 0.00 | 83 | 1019.4 |
| 20260503053045 | 3 | 0 | 0.0 | 0.0 | 0.00 | 0.00 | 0.00 | 82 | 1019.3 |
| 20260503052531 | 3 | 0 | 0.0 | 1.6 | 0.00 | 0.00 | 0.00 | 81 | 1019.3 |
| 20260503052031 | 4 | 0 | 0.0 | 1.6 | 0.00 | 0.00 | 0.00 | 81 | 1019.3 |
| 20260503051545 | 4 | 0 | 0.0 | 1.6 | 0.00 | 0.00 | 0.00 | 80 | 1019.2 |
| 20260503051030 | 4 | 0 | 0.0 | 0.0 | 0.00 | 0.00 | 0.00 | 80 | 1019.3 |
| 20260503050530 | 4 | 0 | 0.0 | 0.0 | 0.00 | 0.00 | 0.00 | 81 | 1019.3 |
| 20260503050045 | 4 | 0 | 0.0 | 0.0 | 0.00 | 0.00 | 0.00 | 80 | 1019.5 |
| 20260503045528 | 4 | 0 | 0.0 | 0.0 | 0.00 | 0.00 | 0.00 | 81 | 1019.4 |
| 20260503045029 | 5 | 0 | 0.0 | 0.0 | 0.00 | 0.00 | 0.00 | 80 | 1019.5 |
| 20260503044542 | 5 | 0 | 0.0 | 0.0 | 0.00 | 0.00 | 0.00 | 79 | 1019.3 |
| 20260503044030 | 5 | 0 | 0.0 | 0.0 | 0.00 | 0.00 | 0.00 | 78 | 1019.4 |
| 20260503043530 | 5 | 0 | 0.0 | 0.0 | 0.00 | 0.00 | 0.00 | 78 | 1019.3 |
| 20260503043043 | 5 | 0 | 0.0 | 0.0 | 0.00 | 0.00 | 0.00 | 77 | 1019.3 |
| 20260503042528 | 5 | 0 | 0.0 | 0.0 | 0.00 | 0.00 | 0.00 | 78 | 1019.3 |
| 20260503042028 | 5 | 0 | 0.0 | 0.0 | 0.00 | 0.00 | 0.00 | 76 | 1019.3 |
| 20260503041553 | 6 | 0 | 0.0 | 0.0 | 0.00 | 0.00 | 0.00 | 76 | 1019.4 |
| 20260503041031 | 6 | 0 | 0.0 | 0.0 | 0.00 | 0.00 | 0.00 | 75 | 1019.3 |
| 20260503040530 | 6 | 0 | 0.0 | 0.0 | 0.00 | 0.00 | 0.00 | 75 | 1019.2 |
| 20260503040055 | 6 | 0 | 0.0 | 0.0 | 0.00 | 0.00 | 0.00 | 74 | 1019.4 |
| 20260503035528 | 6 | 0 | 0.0 | 0.0 | 0.00 | 0.00 | 0.00 | 71 | 1019.3 |
| 20260503035028 | 6 | 0 | 0.0 | 0.0 | 0.00 | 0.00 | 0.00 | 70 | 1019.2 |
| 20260503034559 | 6 | 0 | 0.0 | 0.0 | 0.00 | 0.00 | 0.00 | 71 | 1019.4 |
| 20260503034028 | 7 | 0 | 0.0 | 0.0 | 0.00 | 0.00 | 0.00 | 67 | 1019.3 |
| 20260503033528 | 7 | 0 | 0.0 | 1.6 | 0.00 | 0.00 | 0.00 | 66 | 1019.2 |
| 20260503033045 | 7 | 0 | 0.0 | 1.6 | 0.00 | 0.00 | 0.00 | 65 | 1019.2 |
| 20260503032528 | 7 | 0 | 0.0 | 0.0 | 0.00 | 0.00 | 0.00 | 66 | 1019.1 |
| 20260503032028 | 7 | 0 | 0.0 | 0.0 | 0.00 | 0.00 | 0.00 | 66 | 1019.1 |
| 20260503031544 | 7 | 0 | 0.0 | 0.0 | 0.00 | 0.00 | 0.00 | 66 | 1018.9 |
| 20260503031028 | 7 | 0 | 0.0 | 1.6 | 0.00 | 0.00 | 0.00 | 66 | 1019.1 |
| 20260503030527 | 8 | 0 | 0.0 | 1.6 | 0.00 | 0.00 | 0.00 | 63 | 1019.1 |
| 20260503030053 | 8 | 79 | 0.0 | 0.0 | 0.00 | 0.00 | 0.00 | 63 | 1018.9 |
| 20260503025527 | 8 | 0 | 0.0 | 1.6 | 0.00 | 0.00 | 0.00 | 63 | 1018.9 |
| 20260503025031 | 8 | 0 | 0.0 | 1.6 | 0.00 | 0.00 | 0.00 | 62 | 1019.0 |
| 20260503024546 | 8 | 0 | 0.0 | 3.2 | 0.00 | 0.00 | 0.00 | 64 | 1018.9 |
| 20260503024031 | 9 | 0 | 0.0 | 3.2 | 0.00 | 0.00 | 0.00 | 62 | 1018.8 |
| 20260503023528 | 9 | 32 | 0.0 | 4.8 | 0.00 | 0.00 | 0.00 | 61 | 1018.8 |
| 20260503023043 | 9 | 74 | 0.0 | 4.8 | 0.00 | 0.00 | 0.00 | 61 | 1018.7 |
| 20260503022528 | 9 | 50 | 0.0 | 4.8 | 0.00 | 0.00 | 0.00 | 63 | 1018.6 |
| 20260503022029 | 9 | 0 | 0.0 | 3.2 | 0.00 | 0.00 | 0.00 | 62 | 1018.7 |
| 20260503021543 | 10 | 0 | 0.0 | 3.2 | 0.00 | 0.00 | 0.00 | 62 | 1018.6 |
| 20260503021028 | 10 | 0 | 0.0 | 4.8 | 0.00 | 0.00 | 0.00 | 63 | 1018.4 |
| 20260503020530 | 10 | 73 | 0.0 | 4.8 | 0.00 | 0.00 | 0.00 | 62 | 1018.4 |
| 20260503020047 | 10 | 52 | 0.0 | 4.8 | 0.00 | 0.00 | 0.00 | 61 | 1018.3 |
| 20260503015527 | 10 | 0 | 0.0 | 4.8 | 0.00 | 0.00 | 0.00 | 63 | 1018.1 |
| 20260503015027 | 10 | 81 | 0.0 | 1.6 | 0.00 | 0.00 | 0.00 | 64 | 1018.1 |
| 20260503014549 | 10 | 75 | 0.0 | 3.2 | 0.00 | 0.00 | 0.00 | 63 | 1018.1 |
| 20260503014028 | 10 | 0 | 0.0 | 3.2 | 0.00 | 0.00 | 0.00 | 67 | 1018.0 |
| 20260503013528 | 9 | 29 | 0.0 | 3.2 | 0.00 | 0.00 | 0.00 | 66 | 1017.9 |
| 20260503013045 | 9 | 0 | 0.0 | 0.0 | 0.00 | 0.00 | 0.00 | 72 | 1017.9 |
| 20260503012531 | 9 | 0 | 0.0 | 0.0 | 0.00 | 0.00 | 0.00 | 71 | 1017.8 |
| 20260503012030 | 9 | 0 | 0.0 | 0.0 | 0.00 | 0.00 | 0.00 | 70 | 1017.8 |
| 20260503011541 | 9 | 0 | 0.0 | 0.0 | 0.00 | 0.00 | 0.00 | 70 | 1017.6 |
| 20260503011030 | 10 | 0 | 0.0 | 0.0 | 0.00 | 0.00 | 0.00 | 72 | 1017.6 |
| 20260503010529 | 10 | 0 | 0.0 | 0.0 | 0.00 | 0.00 | 0.00 | 72 | 1017.5 |
| 20260503010046 | 10 | 0 | 0.0 | 0.0 | 0.00 | 0.00 | 0.00 | 70 | 1017.5 |
| 20260503005528 | 10 | 0 | 0.0 | 0.0 | 0.00 | 0.00 | 0.00 | 73 | 1017.5 |
| 20260503005027 | 10 | 0 | 0.0 | 0.0 | 0.00 | 0.00 | 0.00 | 70 | 1017.5 |
| 20260503004546 | 10 | 0 | 0.0 | 0.0 | 0.00 | 0.00 | 0.00 | 69 | 1017.5 |
| 20260503004032 | 10 | 0 | 0.0 | 0.0 | 0.00 | 0.00 | 0.00 | 68 | 1017.4 |
| 20260503003527 | 10 | 0 | 0.0 | 0.0 | 0.00 | 0.00 | 0.00 | 68 | 1017.3 |
| 20260503003047 | 10 | 0 | 0.0 | 0.0 | 0.00 | 0.00 | 0.00 | 68 | 1017.3 |
| 20260503002527 | 10 | 0 | 0.0 | 0.0 | 0.00 | 0.00 | 0.00 | 68 | 1017.1 |
| 20260503002029 | 10 | 0 | 0.0 | 0.0 | 0.00 | 0.00 | 0.00 | 66 | 1017.2 |
| 20260503001601 | 10 | 0 | 0.0 | 0.0 | 0.00 | 0.00 | 0.00 | 65 | 1017.1 |
| 20260503001031 | 11 | 0 | 0.0 | 0.0 | 0.00 | 0.00 | 0.00 | 64 | 1017.0 |
| 20260503000528 | 11 | 0 | 0.0 | 0.0 | 0.00 | 0.00 | 0.00 | 61 | 1017.0 |
| 20260503000100 | 11 | 0 | 0.0 | 0.0 | 0.00 | 0.00 | 0.00 | 61 | 1017.0 |
| 20260502235527 | 11 | 0 | 0.0 | 0.0 | 0.00 | 0.00 | 0.00 | 61 | 1016.9 |
| 20260502235030 | 11 | 0 | 0.0 | 0.0 | 0.00 | 0.00 | 0.00 | 58 | 1016.8 |
| 20260502234545 | 11 | 0 | 0.0 | 0.0 | 0.00 | 0.00 | 0.00 | 56 | 1016.9 |
| 20260502234031 | 11 | 0 | 0.0 | 1.6 | 0.00 | 0.00 | 0.00 | 54 | 1016.9 |
| 20260502233530 | 11 | 0 | 0.0 | 1.6 | 0.00 | 0.00 | 0.00 | 58 | 1016.9 |
| 20260502233045 | 11 | 0 | 0.0 | 3.2 | 0.00 | 0.00 | 0.00 | 53 | 1016.9 |
| 20260502232527 | 11 | 0 | 0.0 | 4.8 | 0.00 | 0.00 | 0.00 | 52 | 1017.0 |
| 20260502232027 | 11 | 0 | 0.0 | 4.8 | 0.00 | 0.00 | 0.00 | 55 | 1017.1 |
| 20260502231555 | 11 | 349 | 0.0 | 3.2 | 0.00 | 0.00 | 0.00 | 52 | 1016.9 |
| 20260502231031 | 11 | 0 | 0.0 | 3.2 | 0.00 | 0.00 | 0.00 | 52 | 1016.9 |
| 20260502230528 | 11 | 0 | 0.0 | 6.4 | 0.00 | 0.00 | 0.00 | 52 | 1017.0 |
| 20260502230044 | 11 | 333 | 0.0 | 8.0 | 0.00 | 0.00 | 0.00 | 52 | 1016.8 |
| 20260502225527 | 12 | 342 | 3.2 | 8.0 | 0.00 | 0.00 | 0.00 | 50 | 1017.0 |
| 20260502225027 | 11 | 1 | 3.2 | 6.4 | 0.00 | 0.00 | 0.00 | 53 | 1017.0 |
| 20260502224543 | 11 | 34 | 1.6 | 6.4 | 0.00 | 0.00 | 0.00 | 54 | 1017.0 |
| 20260502224033 | 11 | 0 | 0.0 | 6.4 | 0.00 | 0.00 | 0.00 | 51 | 1017.1 |
| 20260502223530 | 11 | 0 | 1.6 | 6.4 | 0.00 | 0.00 | 0.00 | 52 | 1017.0 |
| 20260502223039 | 11 | 0 | 1.6 | 11.3 | 0.00 | 0.00 | 0.00 | 52 | 1017.0 |
| 20260502222527 | 11 | 41 | 3.2 | 11.3 | 0.00 | 0.00 | 0.00 | 52 | 1017.1 |
| 20260502222030 | 12 | 6 | 3.2 | 8.0 | 0.00 | 0.00 | 0.00 | 51 | 1017.0 |
| 20260502221546 | 12 | 359 | 3.2 | 8.0 | 0.00 | 0.00 | 0.00 | 52 | 1016.9 |
| 20260502221028 | 12 | 58 | 4.8 | 9.7 | 0.00 | 0.00 | 0.00 | 53 | 1016.8 |
| 20260502220528 | 12 | 38 | 3.2 | 9.7 | 0.00 | 0.00 | 0.00 | 52 | 1016.8 |
| 20260502220050 | 13 | 56 | 3.2 | 12.9 | 0.00 | 0.00 | 0.00 | 51 | 1016.8 |
| 20260502215527 | 12 | 9 | 1.6 | 12.9 | 0.00 | 0.00 | 0.00 | 51 | 1016.8 |
| 20260502215027 | 12 | 244 | 1.6 | 14.5 | 0.00 | 0.00 | 0.00 | 51 | 1016.8 |
| 20260502214544 | 12 | 65 | 4.8 | 14.5 | 0.00 | 0.00 | 0.00 | 54 | 1016.8 |
| 20260502214027 | 11 | 8 | 6.4 | 14.5 | 0.00 | 0.00 | 0.00 | 55 | 1016.7 |
| 20260502213531 | 11 | 12 | 1.6 | 6.4 | 0.00 | 0.00 | 0.00 | 58 | 1016.8 |
| 20260502213045 | 11 | 11 | 0.0 | 4.8 | 0.00 | 0.00 | 0.00 | 57 | 1016.8 |
| 20260502212531 | 11 | 0 | 0.0 | 4.8 | 0.00 | 0.00 | 0.00 | 59 | 1016.8 |
| 20260502212030 | 11 | 30 | 0.0 | 1.6 | 0.00 | 0.00 | 0.00 | 56 | 1016.9 |
| 20260502211549 | 11 | 0 | 0.0 | 1.6 | 0.00 | 0.00 | 0.00 | 61 | 1017.0 |
| 20260502211030 | 11 | 0 | 0.0 | 1.6 | 0.00 | 0.00 | 0.00 | 56 | 1017.0 |
| 20260502210531 | 11 | 0 | 0.0 | 1.6 | 0.00 | 0.00 | 0.00 | 58 | 1017.0 |
| 20260502210056 | 11 | 0 | 0.0 | 1.6 | 0.00 | 0.00 | 0.00 | 58 | 1017.1 |
| 20260502205534 | 11 | 0 | 0.0 | 0.0 | 0.00 | 0.00 | 0.00 | 62 | 1017.0 |
| 20260502205034 | 11 | 0 | 0.0 | 0.0 | 0.00 | 0.00 | 0.00 | 66 | 1017.0 |
| 20260502204546 | 11 | 0 | 0.0 | 0.0 | 0.00 | 0.00 | 0.00 | 66 | 1017.0 |
| 20260502204032 | 11 | 0 | 0.0 | 1.6 | 0.00 | 0.00 | 0.00 | 66 | 1017.1 |
| 20260502203532 | 11 | 0 | 0.0 | 1.6 | 0.00 | 0.00 | 0.00 | 60 | 1017.2 |